Weather History for KPAH - September, 2012

Change the Weather History Date:

Monday, September 3, 2012

  Actual Average Record
Temperature  
Mean Temperature 78 °F 75 °F  
Max Temperature 83 °F 87 °F 101 °F (1954)
Min Temperature 73 °F 63 °F 51 °F (1949)
Degree Days  
Heating Degree Days 0 0  
Month to date heating degree days 0 0  
Since 1 July heating degree days 0 1  
Cooling Degree Days 13 10  
Month to date cooling degree days 41 30  
Year to date cooling degree days 1822 1343  
Growing Degree Days 28 (Base 50)    
Moisture  
Dew Point 72 °F    
Average Humidity 82    
Maximum Humidity 94    
Minimum Humidity 69    
Precipitation  
Precipitation 0.13 in 0.11 in 1.55 in (1950)
Month to date precipitation 2.35 0.31  
Year to date precipitation 18.47 32.79  
Snow  
Snow 0.00 in 0.00 in 0.00 in (2002)
Month to date snowfall 0.0 0.0  
Since 1 July snowfall 0.0 0.0  
Since 1 September snowfall 0.0 0.0  
Snow Depth 0.00 in    
Sea Level Pressure  
Sea Level Pressure 29.82 in    
Wind  
Wind Speed 6 mph (West)    
Max Wind Speed 15 mph    
Max Gust Speed 18 mph    
Visibility 7 miles    
Events Rain    
T = Trace of Precipitation, MM = Missing Value Source: NWS Daily Summary

Daily Weather History Graph

Daily Weather History Graph

Search for Another Location

Airport or City:

Trip Planner

Search our weather history database for the weather conditions in past years. The results will help you decide how hot, cold, wet, or windy it might be!

Date:

Astronomy

Sep. 03, 2012 Rise Set
Actual Time 6:27 AM CDT 7:19 PM CDT
Civil Twilight 6:01 AM CDT 7:46 PM CDT
Nautical Twilight 5:30 AM CDT 8:17 PM CDT
Astronomical Twilight 4:57 AM CDT 8:49 PM CDT
Moon 8:45 PM CDT (9/3) 9:29 AM CDT (9/3)
Length of Visible Light 13h 44m
Length of Day
12h 52m
Waning Gibbous, 90% of the Moon is Illuminated
Sep 3
Waning Gibbous
Sep 8
Last Quarter
Sep 15
New
Sep 22
First Quarter
Sep 29
Full

Hourly Weather History & Observations

Time (CDT) Temp. Heat Index Dew Point Humidity Pressure Visibility Wind Dir Wind Speed Gust Speed Precip Events Conditions
12:53 AM 75.0 °F - 70.0 °F 84% 29.80 in 10.0 mi SW 9.2 mph - N/A   Overcast
1:08 AM 75.2 °F - 69.8 °F 83% 29.81 in 10.0 mi WSW 8.1 mph - N/A   Overcast
1:53 AM 75.0 °F - 70.0 °F 84% 29.78 in 10.0 mi WSW 8.1 mph - N/A   Overcast
2:05 AM 75.2 °F - 69.8 °F 83% 29.79 in 10.0 mi WSW 6.9 mph - N/A   Overcast
2:27 AM 73.4 °F - 69.8 °F 88% 29.78 in 10.0 mi West 8.1 mph - N/A   Overcast
2:53 AM 73.9 °F - 70.0 °F 87% 29.77 in 10.0 mi WSW 6.9 mph - N/A   Scattered Clouds
3:53 AM 73.9 °F - 71.1 °F 91% 29.77 in 10.0 mi West 4.6 mph - N/A   Overcast
4:17 AM 75.2 °F - 71.6 °F 89% 29.79 in 10.0 mi WSW 6.9 mph - N/A   Overcast
4:53 AM 73.9 °F - 72.0 °F 93% 29.78 in 4.0 mi West 5.8 mph - 0.00 in Rain Light Rain
5:00 AM 73.4 °F - 71.6 °F 94% 29.79 in 6.0 mi West 4.6 mph - 0.00 in   Overcast
5:27 AM 73.4 °F - 71.6 °F 94% 29.80 in 7.0 mi WSW 5.8 mph - 0.00 in   Overcast
5:53 AM 73.9 °F - 72.0 °F 93% 29.79 in 8.0 mi West 6.9 mph - 0.00 in   Overcast
6:43 AM 73.4 °F - 71.6 °F 94% 29.81 in 7.0 mi WSW 5.8 mph - N/A   Overcast
6:53 AM 73.9 °F - 72.0 °F 93% 29.81 in 6.0 mi WSW 6.9 mph - N/A   Overcast
7:03 AM 73.4 °F - 71.6 °F 94% 29.82 in 6.0 mi WSW 6.9 mph - N/A   Overcast
7:18 AM 73.4 °F - 71.6 °F 94% 29.82 in 7.0 mi WSW 5.8 mph - N/A   Overcast
7:34 AM 73.4 °F - 71.6 °F 94% 29.83 in 6.0 mi WSW 8.1 mph - N/A   Overcast
7:45 AM 73.4 °F - 71.6 °F 94% 29.83 in 6.0 mi WSW 5.8 mph - N/A   Overcast
7:53 AM 73.9 °F - 72.0 °F 93% 29.82 in 6.0 mi WSW 6.9 mph - N/A   Overcast
8:01 AM 73.4 °F - 71.6 °F 94% 29.83 in 1.8 mi WSW 6.9 mph - 0.00 in Rain Rain
8:11 AM 73.4 °F - 71.6 °F 94% 29.83 in 2.0 mi WSW 8.1 mph - 0.02 in Rain Light Rain
8:16 AM 73.4 °F - 71.6 °F 94% 29.83 in 4.0 mi WSW 8.1 mph - 0.02 in Rain Light Rain
8:31 AM 73.4 °F - 71.6 °F 94% 29.83 in 4.0 mi West 8.1 mph - 0.03 in Rain Light Rain
8:45 AM 73.4 °F - 73.4 °F 100% 29.83 in 3.0 mi West 5.8 mph - 0.03 in   Overcast
8:53 AM 75.0 °F - 73.0 °F 94% 29.82 in 5.0 mi West 6.9 mph - 0.03 in   Overcast
9:53 AM 75.9 °F - 73.0 °F 91% 29.84 in 8.0 mi West 6.9 mph - N/A   Overcast
10:19 AM 75.2 °F - 73.4 °F 94% 29.86 in 2.5 mi West 6.9 mph - 0.00 in Rain Rain
10:28 AM 75.2 °F - 73.4 °F 94% 29.86 in 1.8 mi WNW 5.8 mph - 0.03 in Rain Rain
10:37 AM 75.2 °F - 73.4 °F 94% 29.86 in 1.5 mi WNW 4.6 mph - 0.06 in Rain Light Rain
10:51 AM 75.2 °F - 73.4 °F 94% 29.85 in 3.0 mi WNW 6.9 mph - 0.08 in Rain Light Rain
10:53 AM 75.9 °F - 73.9 °F 94% 29.84 in 4.0 mi WNW 8.1 mph - 0.08 in Rain Light Rain
10:55 AM 75.2 °F - 73.4 °F 94% 29.85 in 5.0 mi WNW 6.9 mph - 0.00 in Rain Light Rain
11:53 AM 82.0 °F 87.9 °F 73.9 °F 76% 29.83 in 10.0 mi Variable 5.8 mph - 0.00 in   Mostly Cloudy
12:04 PM 77.0 °F - 73.4 °F 89% 29.85 in 2.5 mi NW 9.2 mph 17.3 mph 0.01 in Rain Heavy Rain
12:10 PM 77.0 °F - 73.4 °F 89% 29.85 in 3.0 mi NW 6.9 mph - 0.02 in Rain Light Rain
12:53 PM 82.0 °F 87.9 °F 73.9 °F 76% 29.83 in 10.0 mi WNW 6.9 mph - 0.02 in   Mostly Cloudy
1:06 PM 80.6 °F 84.6 °F 71.6 °F 74% 29.85 in 10.0 mi NW 10.4 mph - N/A   Overcast
1:16 PM 82.4 °F 88.2 °F 73.4 °F 74% 29.85 in 10.0 mi WNW 9.2 mph - N/A   Mostly Cloudy
1:53 PM 82.0 °F 87.4 °F 73.0 °F 74% 29.84 in 10.0 mi West 8.1 mph - N/A   Mostly Cloudy
2:53 PM 82.0 °F 86.7 °F 72.0 °F 71% 29.83 in 10.0 mi NW 9.2 mph 16.1 mph 0.00 in   Overcast
3:53 PM 82.0 °F 87.4 °F 73.0 °F 74% 29.83 in 10.0 mi NNW 11.5 mph - N/A   Overcast
4:53 PM 82.0 °F 86.7 °F 72.0 °F 71% 29.82 in 10.0 mi NW 9.2 mph - 0.00 in   Overcast
5:53 PM 81.0 °F 85.2 °F 72.0 °F 74% 29.82 in 10.0 mi NNW 9.2 mph - N/A   Overcast
6:53 PM 80.1 °F 83.6 °F 71.1 °F 74% 29.82 in 10.0 mi NNW 4.6 mph - N/A   Overcast
7:53 PM 78.1 °F - 71.1 °F 79% 29.84 in 10.0 mi Calm Calm - N/A   Clear
8:53 PM 75.9 °F - 72.0 °F 87% 29.86 in 10.0 mi Calm Calm - N/A   Partly Cloudy
9:53 PM 75.9 °F - 72.0 °F 87% 29.86 in 10.0 mi WNW 3.5 mph - N/A   Overcast
10:53 PM 75.0 °F - 72.0 °F 90% 29.87 in 10.0 mi Calm Calm - N/A   Clear
11:53 PM 73.9 °F - 71.1 °F 91% 29.85 in 10.0 mi Calm Calm - N/A   Clear